Location: Franzen
(48.6167°N, 15.3833°E)
Time: 09:09:45
(UTC+00:00)

Cosmos 1417 Rocket - Pass Details

Date: 22 April 2021
Orbit: 951 x 1000 km, 83.0° (Epoch: 16 May)

Event Time Altitude Azimuth Distance (km) Brightness Sun altitude
Exits shadow 20:59:49 50° 152° (SSE) 1,236 4.6 -23.6°
Maximum altitude 21:01:21 67° 94° (E) 1,065 4.5 -23.8°
Drops below altitude 10° 21:07:33 10° 14° (NNE) 2,733 7.4 -24.3°
Sets 21:10:04 0° 12° (NNE) 3,677 8.3 -24.5°
